TimePST,TemperatureF,Dew PointF,Humidity,Sea Level PressureIn,VisibilityMPH,Wind Direction,Wind SpeedMPH,Gust SpeedMPH,PrecipitationIn,Events,Conditions,WindDirDegrees,DateUTC
12:53 AM,39.9,39.0,97,30.17,5.0,Calm,Calm,-,N/A,,Clear,0,2013-02-01 08:53:00
1:53 AM,39.9,37.9,93,30.17,5.0,Calm,Calm,-,N/A,,Clear,0,2013-02-01 09:53:00
2:53 AM,37.9,37.0,97,30.17,4.0,South,3.5,-,0.00,Snow,Light Snow,170,2013-02-01 10:53:00
3:53 AM,37.9,36.0,93,30.17,4.0,South,3.5,-,0.00,Snow,Light Snow,170,2013-02-01 11:53:00
4:53 AM,37.9,37.0,97,30.17,4.0,SSE,3.5,-,0.00,Snow,Light Snow,150,2013-02-01 12:53:00
5:53 AM,37.9,37.0,97,30.17,4.0,Calm,Calm,-,0.00,Snow,Light Snow,0,2013-02-01 13:53:00
7:53 AM,37.9,37.0,97,30.19,4.0,Calm,Calm,-,N/A,,Clear,0,2013-02-01 15:53:00
8:53 AM,44.1,39.9,85,30.19,4.0,Calm,Calm,-,N/A,,Haze,0,2013-02-01 16:53:00
9:53 AM,54.0,42.1,64,30.19,8.0,ENE,6.9,-,N/A,,Haze,60,2013-02-01 17:53:00
10:53 AM,55.9,42.1,60,30.19,8.0,NE,4.6,-,N/A,,Clear,40,2013-02-01 18:53:00
11:53 AM,59.0,43.0,55,30.17,10.0,NNE,6.9,-,N/A,,Clear,20,2013-02-01 19:53:00
12:53 PM,61.0,44.1,54,30.13,10.0,ENE,9.2,-,N/A,,Clear,60,2013-02-01 20:53:00
1:53 PM,63.0,44.1,50,30.11,10.0,NE,9.2,-,N/A,,Clear,40,2013-02-01 21:53:00
2:53 PM,63.0,44.1,50,30.11,10.0,NNE,9.2,-,N/A,,Clear,30,2013-02-01 22:53:00
3:53 PM,63.0,43.0,48,30.10,10.0,NE,8.1,-,N/A,,Clear,50,2013-02-01 23:53:00
4:53 PM,61.0,44.1,54,30.10,10.0,East,3.5,-,N/A,,Clear,80,2013-02-02 00:53:00
5:53 PM,55.9,44.1,64,30.12,10.0,East,3.5,-,N/A,,Clear,80,2013-02-02 01:53:00
6:53 PM,53.1,44.1,71,30.14,10.0,Calm,Calm,-,N/A,,Clear,0,2013-02-02 02:53:00
7:53 PM,51.1,43.0,74,30.15,10.0,Calm,Calm,-,N/A,,Clear,0,2013-02-02 03:53:00
8:53 PM,48.0,43.0,83,30.16,10.0,Calm,Calm,-,N/A,,Clear,0,2013-02-02 04:53:00
9:53 PM,45.0,42.1,90,30.17,10.0,Calm,Calm,-,N/A,,Clear,0,2013-02-02 05:53:00
10:53 PM,45.0,41.0,86,30.18,10.0,Calm,Calm,-,N/A,,Clear,0,2013-02-02 06:53:00
11:53 PM,43.0,39.9,89,30.19,10.0,Calm,Calm,-,N/A,,Clear,0,2013-02-02 07:53:00